Location: Bartlow
(52.0833°N, 0.3167°E)
Time: 11:35:42
(UTC+00:00)

CZ-4 R/B - Pass Details

Date: 26 September 2023
Orbit: 680 x 748 km, 98.6° (Epoch: 28 November)

Event Time Altitude Azimuth Distance (km) Brightness Sun altitude
Rises 02:42:52 0° 16° (NNE) 3,058 7.9 -27.6°
Reaches altitude 10° 02:45:07 10° 19° (NNE) 2,142 7.0 -27.3°
Enters shadow 02:49:44 70° 97° (E) 738 3.9 -26.8°
